Dades meteomassalio
Diari Summary for Maig 3, 2017 Units:  Metric    English   Both
« Previous Day
Next Day »
Diari Semanal Mensual Anual Personalitzat
  Maxima: Minima: Mijana:
Temperatura: 22.1 °C 9.3 °C 15.2 °C
Rosada: 13.0 °C 6.4 °C 9.3 °C
Humitat: 84 % 52 % 69 %
Velocitat del vent: 27.4 km/h 0.0 km/h 5.7 km/h
Racha vent: 27.4 km/h - -
Vent:- - ESE
Pressio: 1019.2 hPa 1013.1 hPa -
Pluja: 0.0 mm    
Historical Graphs
 
 
Tabular Data for Maig 3, 2017
Time Temperature Dew Point Pressure Wind Wind Speed Wind Gust Humidity Rainfall Rate (Hourly) solar Conditions
00:00 12.1 °C 6.9 °C 1019.2 hPa Calm     71 % 0.0 mm 0.0 W/m2 CLR
00:05 12.1 °C 7.0 °C 1019.2 hPa Calm     71 % 0.0 mm 0.0 W/m2 CLR
00:10 12.2 °C 7.1 °C 1019.2 hPa Calm     71 % 0.0 mm 0.0 W/m2 CLR
00:15 12.2 °C 7.1 °C 1019.2 hPa Calm     71 % 0.0 mm 0.0 W/m2 CLR
00:20 12.2 °C 7.1 °C 1019.2 hPa Calm     71 % 0.0 mm 0.0 W/m2 CLR
00:25 12.3 °C 7.2 °C 1019.2 hPa Calm     71 % 0.0 mm 0.0 W/m2 CLR
00:30 12.4 °C 7.3 °C 1019.2 hPa Calm     71 % 0.0 mm 0.0 W/m2 CLR
00:31 12.4 °C 7.1 °C 1019.2 hPa Calm     70 % 0.0 mm 0.0 W/m2 CLR
00:36 12.3 °C 7.2 °C 1019.2 hPa Calm     71 % 0.0 mm 0.0 W/m2 CLR
00:41 12.1 °C 7.2 °C 1019.2 hPa Calm     72 % 0.0 mm 0.0 W/m2 CLR
00:46 12.2 °C 7.3 °C 1019.2 hPa Calm     72 % 0.0 mm 0.0 W/m2 CLR
00:51 12.1 °C 7.2 °C 1019.2 hPa Calm     72 % 0.0 mm 0.0 W/m2 CLR
00:56 12.1 °C 7.2 °C 1019.2 hPa Calm     72 % 0.0 mm 0.0 W/m2 CLR
01:01 11.9 °C 7.3 °C 1019.2 hPa Calm     73 % 0.0 mm 0.0 W/m2 CLR
01:06 11.8 °C 7.2 °C 1019.2 hPa Calm     73 % 0.0 mm 0.0 W/m2 CLR
01:11 11.8 °C 7.1 °C 1019.2 hPa Calm     73 % 0.0 mm 0.0 W/m2 CLR
01:16 11.7 °C 7.2 °C 1019.2 hPa Calm     74 % 0.0 mm 0.0 W/m2 CLR
01:21 11.7 °C 7.2 °C 1019.2 hPa Calm     74 % 0.0 mm 0.0 W/m2 CLR
01:26 11.7 °C 7.4 °C 1019.2 hPa Calm     75 % 0.0 mm 0.0 W/m2 CLR
01:31 11.9 °C 7.4 °C 1019.2 hPa Calm     74 % 0.0 mm 0.0 W/m2 CLR
01:36 12.3 °C 7.6 °C 1019.2 hPa SW 3.7 km/h 3.7 km/h 73 % 0.0 mm 0.0 W/m2 CLR
01:41 12.7 °C 7.7 °C 1019.2 hPa SW 6.4 km/h 6.4 km/h 72 % 0.0 mm 0.0 W/m2 CLR
01:46 13.1 °C 7.9 °C 1018.8 hPa WSW 5.6 km/h 5.6 km/h 71 % 0.0 mm 0.0 W/m2 CLR
01:51 13.3 °C 7.9 °C 1018.8 hPa WSW 7.4 km/h 7.4 km/h 70 % 0.0 mm 0.0 W/m2 CLR
01:56 13.4 °C 7.8 °C 1018.8 hPa West 7.4 km/h 7.4 km/h 69 % 0.0 mm 0.0 W/m2 CLR
02:01 13.4 °C 7.9 °C 1018.8 hPa West 9.3 km/h 9.3 km/h 69 % 0.0 mm 0.0 W/m2 CLR
02:06 13.6 °C 8.0 °C 1018.8 hPa WSW 7.4 km/h 7.4 km/h 69 % 0.0 mm 0.0 W/m2 CLR
02:11 13.6 °C 7.8 °C 1018.8 hPa West 13.0 km/h 13.0 km/h 68 % 0.0 mm 0.0 W/m2 CLR
02:16 13.8 °C 7.9 °C 1018.5 hPa West 13.0 km/h 13.0 km/h 68 % 0.0 mm 0.0 W/m2 CLR
02:21 13.9 °C 7.8 °C 1018.5 hPa West 14.8 km/h 14.8 km/h 67 % 0.0 mm 0.0 W/m2 CLR
02:26 13.9 °C 7.8 °C 1018.5 hPa West 13.0 km/h 13.0 km/h 67 % 0.0 mm 0.0 W/m2 CLR
02:31 13.8 °C 7.8 °C 1018.5 hPa WSW 7.4 km/h 7.4 km/h 67 % 0.0 mm 0.0 W/m2 CLR
02:36 13.6 °C 7.8 °C 1018.5 hPa SW 7.4 km/h 7.4 km/h 68 % 0.0 mm 0.0 W/m2 CLR
02:41 13.4 °C 7.9 °C 1018.5 hPa WSW 9.3 km/h 9.3 km/h 69 % 0.0 mm 0.0 W/m2 CLR
02:46 13.3 °C 7.7 °C 1018.5 hPa WSW 5.6 km/h 5.6 km/h 69 % 0.0 mm 0.0 W/m2 CLR
02:51 13.2 °C 7.8 °C 1018.5 hPa WSW 7.4 km/h 7.4 km/h 70 % 0.0 mm 0.0 W/m2 CLR
02:56 13.1 °C 7.8 °C 1018.5 hPa WSW 5.6 km/h 5.6 km/h 70 % 0.0 mm 0.0 W/m2 CLR
03:01 13.1 °C 7.8 °C 1018.5 hPa SW 5.6 km/h   70 % 0.0 mm 0.0 W/m2 CLR
03:06 13.0 °C 7.4 °C 1018.5 hPa Calm     69 % 0.0 mm 0.0 W/m2 CLR
03:11 12.5 °C 7.2 °C 1018.5 hPa Calm     70 % 0.0 mm 0.0 W/m2 CLR
03:16 12.0 °C 7.1 °C 1018.5 hPa Calm     72 % 0.0 mm 0.0 W/m2 CLR
03:21 11.6 °C 7.1 °C 1018.5 hPa Calm     74 % 0.0 mm 0.0 W/m2 CLR
03:26 11.3 °C 7.1 °C 1018.5 hPa Calm     75 % 0.0 mm 0.0 W/m2 CLR
03:31 11.2 °C 7.1 °C 1018.5 hPa Calm     76 % 0.0 mm 0.0 W/m2 CLR
03:36 11.1 °C 7.1 °C 1018.5 hPa Calm     76 % 0.0 mm 0.0 W/m2 CLR
03:41 11.1 °C 7.0 °C 1018.5 hPa Calm     76 % 0.0 mm 0.0 W/m2 CLR
03:46 10.9 °C 6.9 °C 1018.5 hPa Calm     76 % 0.0 mm 0.0 W/m2 CLR
03:51 10.8 °C 6.9 °C 1018.5 hPa Calm     77 % 0.0 mm 0.0 W/m2 CLR
03:56 10.7 °C 7.1 °C 1018.5 hPa Calm     78 % 0.0 mm 0.0 W/m2 CLR
04:01 10.7 °C 7.1 °C 1018.5 hPa Calm     78 % 0.0 mm 0.0 W/m2 CLR
04:06 10.7 °C 7.0 °C 1018.5 hPa Calm     78 % 0.0 mm 0.0 W/m2 CLR
04:11 10.6 °C 6.9 °C 1018.5 hPa Calm     78 % 0.0 mm 0.0 W/m2 CLR
04:16 10.4 °C 6.8 °C 1018.5 hPa Calm     78 % 0.0 mm 0.0 W/m2 CLR
04:21 10.3 °C 6.8 °C 1018.5 hPa Calm     79 % 0.0 mm 0.0 W/m2 CLR
04:26 10.3 °C 6.8 °C 1018.5 hPa Calm     79 % 0.0 mm 0.0 W/m2 CLR
04:31 10.2 °C 6.9 °C 1018.5 hPa Calm     80 % 0.0 mm 0.0 W/m2 CLR
04:36 10.2 °C 6.9 °C 1018.5 hPa Calm     80 % 0.0 mm 0.0 W/m2 CLR
04:42 10.1 °C 6.8 °C 1018.5 hPa Calm     80 % 0.0 mm 0.0 W/m2 CLR
04:47 10.1 °C 6.9 °C 1018.5 hPa Calm     81 % 0.0 mm 0.0 W/m2 CLR
04:52 10.1 °C 7.0 °C 1018.5 hPa Calm     81 % 0.0 mm 0.0 W/m2 CLR
04:57 10.2 °C 6.9 °C 1018.5 hPa Calm     80 % 0.0 mm 0.0 W/m2 CLR
05:02 10.2 °C 6.9 °C 1018.5 hPa Calm     80 % 0.0 mm 0.0 W/m2 CLR
05:07 10.1 °C 6.8 °C 1018.5 hPa Calm     80 % 0.0 mm 0.0 W/m2 CLR
05:12 10.1 °C 6.9 °C 1018.2 hPa Calm     81 % 0.0 mm 0.0 W/m2 CLR
05:17 10.1 °C 7.0 °C 1018.5 hPa Calm     81 % 0.0 mm 0.0 W/m2 CLR
05:22 10.2 °C 7.1 °C 1018.5 hPa Calm     81 % 0.0 mm 0.0 W/m2 CLR
05:27 10.3 °C 7.1 °C 1018.2 hPa Calm     80 % 0.0 mm 0.0 W/m2 CLR
05:32 10.4 °C 7.1 °C 1018.2 hPa Calm     80 % 0.0 mm 0.0 W/m2 CLR
05:37 10.3 °C 7.1 °C 1018.2 hPa Calm     80 % 0.0 mm 0.0 W/m2 CLR
05:42 10.4 °C 7.1 °C 1018.2 hPa Calm     80 % 0.0 mm 0.0 W/m2 CLR
05:47 10.5 °C 7.2 °C 1018.2 hPa Calm     80 % 0.0 mm 0.0 W/m2 CLR
05:52 10.6 °C 7.1 °C 1018.2 hPa Calm     79 % 0.0 mm 0.0 W/m2 CLR
05:57 10.6 °C 7.1 °C 1018.2 hPa Calm     79 % 0.0 mm 0.0 W/m2 CLR
06:02 10.4 °C 6.9 °C 1018.2 hPa Calm     79 % 0.0 mm 0.0 W/m2 CLR
06:05 10.3 °C 7.1 °C 1018.2 hPa Calm     80 % 0.0 mm 0.0 W/m2 CLR
06:10 10.2 °C 6.9 °C 1018.2 hPa Calm     80 % 0.0 mm 0.0 W/m2 CLR
06:13 10.2 °C 6.9 °C 1018.2 hPa Calm     80 % 0.0 mm 0.0 W/m2 CLR
06:15 10.2 °C 6.9 °C 1018.2 hPa Calm     80 % 0.0 mm 0.0 W/m2 CLR
06:20 10.1 °C 7.0 °C 1018.2 hPa Calm     81 % 0.0 mm 0.0 W/m2 CLR
06:25 10.1 °C 7.0 °C 1018.2 hPa Calm     81 % 0.0 mm 0.0 W/m2 CLR
06:30 10.0 °C 6.9 °C 1018.2 hPa Calm     81 % 0.0 mm 0.0 W/m2 CLR
06:35 9.9 °C 6.8 °C 1018.2 hPa Calm     81 % 0.0 mm 0.0 W/m2 CLR
06:40 9.8 °C 6.7 °C 1018.2 hPa Calm     81 % 0.0 mm 0.0 W/m2 CLR
06:45 9.7 °C 6.6 °C 1018.2 hPa Calm     81 % 0.0 mm 0.0 W/m2 OVC
06:50 9.7 °C 6.7 °C 1018.2 hPa Calm     82 % 0.0 mm 0.0 W/m2 OVC
06:55 9.6 °C 6.7 °C 1018.2 hPa Calm     82 % 0.0 mm 0.0 W/m2 OVC
07:00 9.6 °C 6.6 °C 1018.2 hPa Calm     82 % 0.0 mm 5.0 W/m2 OVC
07:05 9.5 °C 6.6 °C 1018.2 hPa Calm     82 % 0.0 mm 7.0 W/m2 BKN
07:10 9.3 °C 6.4 °C 1018.2 hPa Calm     82 % 0.0 mm 12.0 W/m2 BKN
07:15 9.3 °C 6.6 °C 1018.2 hPa Calm     83 % 0.0 mm 21.0 W/m2 BKN
07:20 9.3 °C 6.7 °C 1018.2 hPa Calm     84 % 0.0 mm 32.0 W/m2 BKN
07:25 9.3 °C 6.7 °C 1018.2 hPa Calm     84 % 0.0 mm 46.0 W/m2 SCT
07:30 9.3 °C 6.7 °C 1018.2 hPa Calm     84 % 0.0 mm 53.0 W/m2 SCT
07:35 9.3 °C 6.8 °C 1018.2 hPa Calm     84 % 0.0 mm 67.0 W/m2 FEW
07:40 9.4 °C 6.9 °C 1018.2 hPa Calm     84 % 0.0 mm 74.0 W/m2 FEW
07:45 9.6 °C 7.0 °C 1018.2 hPa Calm     84 % 0.0 mm 84.0 W/m2 FEW
07:50 9.7 °C 7.1 °C 1018.2 hPa Calm     84 % 0.0 mm 90.0 W/m2 CLR
07:55 9.8 °C 7.2 °C 1018.2 hPa Calm     84 % 0.0 mm 107.0 W/m2 CLR
08:00 10.0 °C 7.2 °C 1018.2 hPa Calm     83 % 0.0 mm 111.0 W/m2 CLR
08:05 10.2 °C 7.4 °C 1018.2 hPa Calm     83 % 0.0 mm 114.0 W/m2 CLR
08:10 10.3 °C 7.4 °C 1018.2 hPa Calm     82 % 0.0 mm 135.0 W/m2 CLR
08:15 10.6 °C 7.7 °C 1018.2 hPa Calm     82 % 0.0 mm 128.0 W/m2 CLR
08:20 10.8 °C 7.7 °C 1018.2 hPa Calm     81 % 0.0 mm 151.0 W/m2 CLR
08:25 11.1 °C 7.7 °C 1018.2 hPa Calm     80 % 0.0 mm 169.0 W/m2 CLR
08:30 11.3 °C 7.8 °C 1018.2 hPa Calm     79 % 0.0 mm 167.0 W/m2 CLR
08:35 11.6 °C 8.1 °C 1018.2 hPa Calm     79 % 0.0 mm 156.0 W/m2 CLR
08:40 11.9 °C 8.2 °C 1018.2 hPa Calm     78 % 0.0 mm 185.0 W/m2 CLR
08:46 12.2 °C 8.3 °C 1018.2 hPa Calm     77 % 0.0 mm 221.0 W/m2 CLR
08:51 12.5 °C 8.4 °C 1018.2 hPa Calm     76 % 0.0 mm 218.0 W/m2 CLR
08:55 12.8 °C 8.4 °C 1018.2 hPa Calm     75 % 0.0 mm 213.0 W/m2 CLR
09:00 13.1 °C 8.7 °C 1017.8 hPa Calm     75 % 0.0 mm 185.0 W/m2 CLR
09:05 13.3 °C 8.8 °C 1017.8 hPa Calm     74 % 0.0 mm 185.0 W/m2 CLR
09:10 13.5 °C 8.8 °C 1017.8 hPa Calm     73 % 0.0 mm 165.0 W/m2 CLR
09:15 13.6 °C 8.8 °C 1017.8 hPa Calm     73 % 0.0 mm 169.0 W/m2 CLR
09:20 13.8 °C 9.1 °C 1017.8 hPa Calm     73 % 0.0 mm 195.0 W/m2 CLR
09:25 14.0 °C 9.1 °C 1017.8 hPa Calm     72 % 0.0 mm 190.0 W/m2 CLR
09:30 14.2 °C 9.0 °C 1017.8 hPa Calm     71 % 0.0 mm 190.0 W/m2 CLR
09:35 14.3 °C 8.9 °C 1017.8 hPa Calm     70 % 0.0 mm 178.0 W/m2 CLR
09:40 14.4 °C 8.6 °C 1017.8 hPa Calm     68 % 0.0 mm 174.0 W/m2 CLR
09:45 14.6 °C 8.7 °C 1017.8 hPa Calm     68 % 0.0 mm 153.0 W/m2 CLR
09:50 14.7 °C 8.8 °C 1017.8 hPa Calm     68 % 0.0 mm 134.0 W/m2 CLR
09:55 14.8 °C 8.8 °C 1017.8 hPa Calm     67 % 0.0 mm 109.0 W/m2 CLR
10:00 14.9 °C 8.7 °C 1017.8 hPa Calm     66 % 0.0 mm 84.0 W/m2 CLR
10:05 15.0 °C 8.7 °C 1017.8 hPa Calm     66 % 0.0 mm 86.0 W/m2 CLR
10:10 15.1 °C 8.8 °C 1017.8 hPa Calm     66 % 0.0 mm 93.0 W/m2 CLR
10:15 15.1 °C 8.6 °C 1017.8 hPa Calm     65 % 0.0 mm 79.0 W/m2 CLR
10:20 15.1 °C 8.6 °C 1017.8 hPa Calm     65 % 0.0 mm 81.0 W/m2 FEW
10:25 15.2 °C 8.6 °C 1017.8 hPa Calm     65 % 0.0 mm 81.0 W/m2 FEW
10:30 15.2 °C 8.7 °C 1017.8 hPa Calm     65 % 0.0 mm 100.0 W/m2 FEW
10:35 15.2 °C 8.9 °C 1017.8 hPa Calm     66 % 0.0 mm 91.0 W/m2 CLR
10:40 15.2 °C 8.7 °C 1017.8 hPa Calm     65 % 0.0 mm 76.0 W/m2 CLR
10:45 15.2 °C 8.6 °C 1018.2 hPa Calm     65 % 0.0 mm 70.0 W/m2 FEW
10:50 15.1 °C 8.6 °C 1017.8 hPa Calm     65 % 0.0 mm 83.0 W/m2 FEW
10:55 15.1 °C 8.6 °C 1017.8 hPa Calm     65 % 0.0 mm 118.0 W/m2 FEW
11:00 15.2 °C 8.6 °C 1017.8 hPa Calm     65 % 0.0 mm 130.0 W/m2 CLR
11:05 15.2 °C 8.6 °C 1017.8 hPa Calm     65 % 0.0 mm 132.0 W/m2 CLR
11:10 15.2 °C 8.7 °C 1017.8 hPa Calm     65 % 0.0 mm 97.0 W/m2 CLR
11:15 15.3 °C 8.9 °C 1017.8 hPa Calm     66 % 0.0 mm 88.0 W/m2 CLR
11:20 15.3 °C 8.7 °C 1017.8 hPa Calm     65 % 0.0 mm 84.0 W/m2 CLR
11:25 15.2 °C 8.8 °C 1018.2 hPa Calm   1.9 km/h 66 % 0.0 mm 79.0 W/m2 FEW
11:30 15.1 °C 9.0 °C 1018.2 hPa Calm     67 % 0.0 mm 88.0 W/m2 FEW
11:35 15.1 °C 9.2 °C 1017.8 hPa Calm     68 % 0.0 mm 105.0 W/m2 CLR
11:40 15.0 °C 9.1 °C 1017.8 hPa Calm     68 % 0.0 mm 104.0 W/m2 CLR
11:45 15.0 °C 9.1 °C 1017.8 hPa Calm     68 % 0.0 mm 113.0 W/m2 CLR
11:51 15.1 °C 9.2 °C 1017.8 hPa Calm     68 % 0.0 mm 127.0 W/m2 CLR
11:56 15.1 °C 9.2 °C 1017.8 hPa Calm     68 % 0.0 mm 176.0 W/m2 CLR
12:01 15.2 °C 9.3 °C 1017.8 hPa Calm     68 % 0.0 mm 281.0 W/m2 CLR
12:06 15.4 °C 9.5 °C 1017.8 hPa Calm     68 % 0.0 mm 506.0 W/m2 CLR
12:11 15.7 °C 9.2 °C 1017.8 hPa Calm     65 % 0.0 mm 490.0 W/m2 CLR
12:16 16.1 °C 9.3 °C 1017.8 hPa ENE 5.6 km/h 5.6 km/h 64 % 0.0 mm 443.0 W/m2 CLR
12:21 16.3 °C 9.2 °C 1017.8 hPa Calm     63 % 0.0 mm 424.0 W/m2 CLR
12:26 16.4 °C 9.1 °C 1017.8 hPa Calm     62 % 0.0 mm 366.0 W/m2 CLR
12:31 16.4 °C 9.4 °C 1017.8 hPa Calm     63 % 0.0 mm 330.0 W/m2 CLR
12:36 16.6 °C 9.2 °C 1017.8 hPa NE 5.6 km/h 5.6 km/h 62 % 0.0 mm 320.0 W/m2 CLR
12:41 16.6 °C 9.2 °C 1017.8 hPa ENE 9.3 km/h 9.3 km/h 62 % 0.0 mm 373.0 W/m2 CLR
12:46 16.6 °C 9.5 °C 1017.8 hPa ENE 3.7 km/h 3.7 km/h 63 % 0.0 mm 390.0 W/m2 CLR
12:51 16.8 °C 9.7 °C 1017.8 hPa NE 9.3 km/h 9.3 km/h 63 % 0.0 mm 443.0 W/m2 CLR
12:56 16.8 °C 9.2 °C 1017.8 hPa ENE 9.3 km/h 9.3 km/h 61 % 0.0 mm 304.0 W/m2 CLR
13:01 16.6 °C 9.3 °C 1017.5 hPa ENE 9.3 km/h 9.3 km/h 62 % 0.0 mm 320.0 W/m2 CLR
13:06 16.7 °C 9.3 °C 1017.5 hPa ENE 5.6 km/h 5.6 km/h 62 % 0.0 mm 387.0 W/m2 CLR
13:11 16.8 °C 9.4 °C 1017.5 hPa NE 13.0 km/h 13.0 km/h 62 % 0.0 mm 388.0 W/m2 CLR
13:16 16.8 °C 9.7 °C 1017.5 hPa NE 5.6 km/h 5.6 km/h 63 % 0.0 mm 366.0 W/m2 CLR
13:21 16.8 °C 9.7 °C 1017.5 hPa ENE 9.7 km/h 9.7 km/h 63 % 0.0 mm 332.0 W/m2 CLR
13:26 16.8 °C 10.0 °C 1017.5 hPa NE 13.0 km/h 13.0 km/h 64 % 0.0 mm 336.0 W/m2 CLR
13:31 16.8 °C 9.9 °C 1017.5 hPa ENE 7.4 km/h 7.4 km/h 64 % 0.0 mm 388.0 W/m2 CLR
13:36 16.9 °C 10.1 °C 1017.2 hPa NE 11.1 km/h 11.1 km/h 64 % 0.0 mm 396.0 W/m2 CLR
13:41 17.0 °C 10.1 °C 1017.2 hPa Calm     64 % 0.0 mm 367.0 W/m2 CLR
13:46 17.1 °C 10.5 °C 1017.2 hPa NE 1.9 km/h   65 % 0.0 mm 422.0 W/m2 CLR
13:51 17.2 °C 10.1 °C 1017.2 hPa East 9.3 km/h 9.3 km/h 63 % 0.0 mm 454.0 W/m2 CLR
13:56 17.3 °C 10.4 °C 1017.2 hPa ESE 11.1 km/h 11.1 km/h 64 % 0.0 mm 1042.0 W/m2 CLR
14:01 17.7 °C 10.6 °C 1016.8 hPa East 1.9 km/h   63 % 0.0 mm 1081.0 W/m2 CLR
14:06 18.0 °C 10.6 °C 1016.8 hPa East 16.7 km/h 16.7 km/h 62 % 0.0 mm 1020.0 W/m2 CLR
14:11 18.1 °C 10.7 °C 1016.5 hPa East 7.4 km/h 7.4 km/h 62 % 0.0 mm 921.0 W/m2 CLR
14:16 18.3 °C 10.9 °C 1016.5 hPa East 8.0 km/h 8.0 km/h 62 % 0.0 mm 939.0 W/m2 CLR
14:21 18.5 °C 10.1 °C 1016.5 hPa ENE 13.0 km/h 13.0 km/h 58 % 0.0 mm 863.0 W/m2 CLR
14:26 18.6 °C 10.4 °C 1016.1 hPa ENE 5.6 km/h 5.6 km/h 59 % 0.0 mm 912.0 W/m2 CLR
14:31 18.9 °C 11.0 °C 1016.1 hPa SSE 12.9 km/h 12.9 km/h 60 % 0.0 mm 914.0 W/m2 CLR
14:36 19.3 °C 10.6 °C 1016.1 hPa SE 11.1 km/h 11.1 km/h 57 % 0.0 mm 904.0 W/m2 CLR
14:41 19.2 °C 11.0 °C 1016.1 hPa ESE 16.7 km/h 16.7 km/h 59 % 0.0 mm 891.0 W/m2 CLR
14:46 19.2 °C 10.9 °C 1015.8 hPa East 16.7 km/h 16.7 km/h 59 % 0.0 mm 886.0 W/m2 CLR
14:51 19.1 °C 10.8 °C 1015.8 hPa ENE 14.8 km/h 14.8 km/h 59 % 0.0 mm 884.0 W/m2 CLR
14:56 19.5 °C 11.3 °C 1015.8 hPa ESE 13.0 km/h 13.0 km/h 59 % 0.0 mm 875.0 W/m2 CLR
15:01 19.7 °C 11.2 °C 1015.8 hPa ESE 18.5 km/h 18.5 km/h 58 % 0.0 mm 875.0 W/m2 CLR
15:06 19.7 °C 10.7 °C 1015.5 hPa SE 7.4 km/h 7.4 km/h 56 % 0.0 mm 870.0 W/m2 CLR
15:11 19.6 °C 10.8 °C 1015.5 hPa SE 11.3 km/h 11.3 km/h 57 % 0.0 mm 865.0 W/m2 CLR
15:16 19.8 °C 11.1 °C 1015.5 hPa ESE 7.4 km/h 7.4 km/h 57 % 0.0 mm 853.0 W/m2 CLR
15:21 19.9 °C 11.4 °C 1015.5 hPa ENE 14.8 km/h 14.8 km/h 58 % 0.0 mm 851.0 W/m2 CLR
15:26 20.2 °C 11.6 °C 1015.5 hPa East 5.6 km/h 5.6 km/h 58 % 0.0 mm 849.0 W/m2 CLR
15:29 20.5 °C 11.7 °C 1015.1 hPa East 8.0 km/h 8.0 km/h 57 % 0.0 mm 840.0 W/m2 CLR
15:34 20.6 °C 11.2 °C 1015.1 hPa ENE 13.0 km/h 13.0 km/h 55 % 0.0 mm 828.0 W/m2 CLR
15:35 20.7 °C 11.3 °C 1015.1 hPa East 14.8 km/h 14.8 km/h 55 % 0.0 mm 826.0 W/m2 CLR
15:40 20.8 °C 11.4 °C 1015.1 hPa East 16.7 km/h 16.7 km/h 55 % 0.0 mm 821.0 W/m2 CLR
15:45 20.9 °C 11.6 °C 1014.8 hPa ENE 13.0 km/h 13.0 km/h 55 % 0.0 mm 812.0 W/m2 CLR
15:50 21.0 °C 11.6 °C 1014.8 hPa East 12.9 km/h 12.9 km/h 55 % 0.0 mm 805.0 W/m2 CLR
15:55 20.8 °C 11.2 °C 1014.8 hPa East 13.0 km/h 13.0 km/h 54 % 0.0 mm 800.0 W/m2 CLR
16:00 21.2 °C 11.2 °C 1014.8 hPa East 9.3 km/h 9.3 km/h 53 % 0.0 mm 786.0 W/m2 CLR
16:05 21.2 °C 11.6 °C 1014.4 hPa ENE 9.3 km/h 9.3 km/h 54 % 0.0 mm 775.0 W/m2 CLR
16:10 21.4 °C 11.7 °C 1014.4 hPa NE 5.6 km/h 5.6 km/h 54 % 0.0 mm 773.0 W/m2 CLR
16:15 21.9 °C 11.9 °C 1014.4 hPa NE 16.7 km/h 16.7 km/h 53 % 0.0 mm 759.0 W/m2 CLR
16:20 21.9 °C 11.6 °C 1014.4 hPa ENE 16.7 km/h 16.7 km/h 52 % 0.0 mm 745.0 W/m2 CLR
16:26 22.1 °C 11.8 °C 1014.1 hPa ENE 9.3 km/h 9.3 km/h 52 % 0.0 mm 737.0 W/m2 CLR
16:31 21.9 °C 11.9 °C 1014.1 hPa East 20.4 km/h 20.4 km/h 53 % 0.0 mm 726.0 W/m2 CLR
16:36 21.9 °C 11.9 °C 1014.1 hPa East 22.2 km/h 22.2 km/h 53 % 0.0 mm 714.0 W/m2 CLR
16:41 21.7 °C 11.9 °C 1013.8 hPa East 20.4 km/h 20.4 km/h 54 % 0.0 mm 700.0 W/m2 CLR
16:46 21.4 °C 11.7 °C 1013.8 hPa East 7.4 km/h 8.4 km/h 54 % 0.0 mm 693.0 W/m2 CLR
16:51 21.4 °C 11.7 °C 1013.8 hPa East 16.7 km/h 16.7 km/h 54 % 0.0 mm 673.0 W/m2 CLR
16:56 21.5 °C 12.1 °C 1013.8 hPa ENE 16.7 km/h 16.7 km/h 55 % 0.0 mm 663.0 W/m2 CLR
17:01 21.6 °C 12.1 °C 1013.8 hPa ESE 16.1 km/h 16.1 km/h 55 % 0.0 mm 649.0 W/m2 CLR
17:06 21.6 °C 12.2 °C 1013.4 hPa ENE 20.4 km/h 20.4 km/h 55 % 0.0 mm 633.0 W/m2 CLR
17:11 21.4 °C 12.3 °C 1013.4 hPa East 14.8 km/h 14.8 km/h 56 % 0.0 mm 621.0 W/m2 CLR
17:16 21.6 °C 12.4 °C 1013.4 hPa East 13.0 km/h 13.0 km/h 56 % 0.0 mm 603.0 W/m2 CLR
17:21 21.6 °C 12.1 °C 1013.4 hPa East 9.7 km/h 9.7 km/h 55 % 0.0 mm 587.0 W/m2 CLR
17:26 21.6 °C 12.4 °C 1013.4 hPa East 20.4 km/h 20.4 km/h 56 % 0.0 mm 577.0 W/m2 CLR
17:31 21.4 °C 12.6 °C 1013.1 hPa ESE 14.8 km/h 14.8 km/h 57 % 0.0 mm 564.0 W/m2 CLR
17:36 21.5 °C 12.3 °C 1013.1 hPa East 20.4 km/h 20.4 km/h 56 % 0.0 mm 543.0 W/m2 CLR
17:41 21.2 °C 12.6 °C 1013.1 hPa East 18.5 km/h 18.5 km/h 58 % 0.0 mm 534.0 W/m2 CLR
17:46 21.4 °C 12.8 °C 1013.1 hPa ENE 12.9 km/h 12.9 km/h 58 % 0.0 mm 515.0 W/m2 CLR
17:51 21.8 °C 12.9 °C 1013.1 hPa East 27.4 km/h 27.4 km/h 57 % 0.0 mm 504.0 W/m2 CLR
17:56 21.5 °C 12.6 °C 1013.1 hPa East 20.4 km/h 20.4 km/h 57 % 0.0 mm 475.0 W/m2 CLR
18:01 21.4 °C 12.6 °C 1013.1 hPa ESE 16.7 km/h 16.7 km/h 57 % 0.0 mm 471.0 W/m2 CLR
18:06 21.4 °C 12.8 °C 1013.1 hPa ESE 20.9 km/h 20.9 km/h 58 % 0.0 mm 457.0 W/m2 CLR
18:11 21.3 °C 12.7 °C 1013.1 hPa SE 18.5 km/h 18.5 km/h 58 % 0.0 mm 445.0 W/m2 CLR
18:16 21.2 °C 12.9 °C 1013.1 hPa East 14.8 km/h 14.8 km/h 59 % 0.0 mm 424.0 W/m2 CLR
18:19 21.1 °C 12.8 °C 1013.1 hPa ENE 18.5 km/h 18.5 km/h 59 % 0.0 mm 417.0 W/m2 CLR
18:21 21.1 °C 13.0 °C 1013.1 hPa ESE 18.5 km/h 18.5 km/h 60 % 0.0 mm 410.0 W/m2 CLR
18:26 20.7 °C 12.7 °C 1013.1 hPa East 14.8 km/h 14.8 km/h 60 % 0.0 mm 392.0 W/m2 CLR
18:36 20.6 °C 12.8 °C 1013.1 hPa ESE 14.8 km/h 14.8 km/h 61 % 0.0 mm 359.0 W/m2 CLR
18:41 20.6 °C 12.8 °C 1013.1 hPa East 20.4 km/h 20.4 km/h 61 % 0.0 mm 345.0 W/m2 CLR
18:46 20.5 °C 12.7 °C 1013.1 hPa SE 11.1 km/h 11.1 km/h 61 % 0.0 mm 329.0 W/m2 CLR
18:51 20.5 °C 12.7 °C 1013.1 hPa ESE 14.8 km/h 14.8 km/h 61 % 0.0 mm 315.0 W/m2 CLR
18:56 20.4 °C 12.6 °C 1013.1 hPa ESE 18.5 km/h 18.5 km/h 61 % 0.0 mm 301.0 W/m2 CLR
19:01 20.3 °C 12.5 °C 1013.1 hPa ESE 14.8 km/h 14.8 km/h 61 % 0.0 mm 279.0 W/m2 CLR
19:06 20.1 °C 12.3 °C 1013.1 hPa ESE 18.5 km/h 18.5 km/h 61 % 0.0 mm 262.0 W/m2 CLR
19:11 19.9 °C 12.4 °C 1013.1 hPa East 18.5 km/h 18.5 km/h 62 % 0.0 mm 248.0 W/m2 CLR
19:16 19.6 °C 12.1 °C 1013.1 hPa East 18.5 km/h 18.5 km/h 62 % 0.0 mm 232.0 W/m2 CLR
19:21 19.5 °C 12.0 °C 1013.1 hPa ESE 18.5 km/h 18.5 km/h 62 % 0.0 mm 220.0 W/m2 CLR
19:26 19.5 °C 12.0 °C 1013.1 hPa East 13.0 km/h 13.0 km/h 62 % 0.0 mm 200.0 W/m2 CLR
19:31 19.4 °C 11.9 °C 1013.1 hPa ESE 16.7 km/h 16.7 km/h 62 % 0.0 mm 183.0 W/m2 CLR
19:36 19.4 °C 11.7 °C 1013.1 hPa ENE 18.5 km/h 18.5 km/h 61 % 0.0 mm 167.0 W/m2 CLR
19:41 19.2 °C 11.8 °C 1013.1 hPa ESE 11.1 km/h 11.1 km/h 62 % 0.0 mm 149.0 W/m2 CLR
19:46 19.2 °C 11.8 °C 1013.1 hPa East 14.8 km/h 14.8 km/h 62 % 0.0 mm 130.0 W/m2 CLR
19:51 19.0 °C 11.6 °C 1013.1 hPa ESE 18.5 km/h 18.5 km/h 62 % 0.0 mm 116.0 W/m2 CLR
19:56 18.9 °C 11.7 °C 1013.1 hPa East 14.8 km/h 14.8 km/h 63 % 0.0 mm 100.0 W/m2 CLR
20:01 18.9 °C 11.7 °C 1013.1 hPa East 13.0 km/h 13.0 km/h 63 % 0.0 mm 88.0 W/m2 CLR
20:06 18.9 °C 11.4 °C 1013.1 hPa ESE 14.8 km/h 14.8 km/h 62 % 0.0 mm 72.0 W/m2 FEW
20:11 18.8 °C 11.6 °C 1013.1 hPa ESE 14.8 km/h 14.8 km/h 63 % 0.0 mm 60.0 W/m2 SCT
20:16 18.7 °C 11.5 °C 1013.1 hPa ESE 7.4 km/h 7.4 km/h 63 % 0.0 mm 49.0 W/m2 SCT
20:21 18.5 °C 11.3 °C 1013.1 hPa ESE 16.7 km/h 16.7 km/h 63 % 0.0 mm 39.0 W/m2 BKN
20:26 18.4 °C 11.4 °C 1013.1 hPa ESE 11.1 km/h 11.1 km/h 64 % 0.0 mm 32.0 W/m2 BKN
20:28 18.3 °C 11.3 °C 1013.1 hPa East 13.0 km/h 13.0 km/h 64 % 0.0 mm 26.0 W/m2 BKN
20:31 18.2 °C 11.2 °C 1013.1 hPa East 14.8 km/h 14.8 km/h 64 % 0.0 mm 23.0 W/m2 BKN
20:36 17.9 °C 11.0 °C 1013.1 hPa ESE 16.7 km/h 16.7 km/h 64 % 0.0 mm 19.0 W/m2 BKN
20:41 17.7 °C 11.1 °C 1013.1 hPa ESE 14.8 km/h 14.8 km/h 65 % 0.0 mm 16.0 W/m2 BKN
20:46 17.5 °C 10.8 °C 1013.4 hPa ESE 16.7 km/h 16.7 km/h 65 % 0.0 mm 12.0 W/m2 BKN
20:51 17.3 °C 10.9 °C 1013.4 hPa ESE 12.9 km/h 12.9 km/h 66 % 0.0 mm 9.0 W/m2 BKN
20:56 17.1 °C 10.7 °C 1013.4 hPa ESE 9.3 km/h 9.3 km/h 66 % 0.0 mm 5.0 W/m2 BKN
21:01 16.8 °C 10.4 °C 1013.4 hPa ESE 14.8 km/h 14.8 km/h 66 % 0.0 mm 0.0 W/m2 CLR
21:06 16.6 °C 10.4 °C 1013.4 hPa SE 16.7 km/h 16.7 km/h 67 % 0.0 mm 0.0 W/m2 CLR
21:11 16.4 °C 10.5 °C 1013.8 hPa ESE 14.8 km/h 14.8 km/h 68 % 0.0 mm 0.0 W/m2 CLR
21:16 16.3 °C 10.3 °C 1013.8 hPa ESE 11.3 km/h 11.3 km/h 68 % 0.0 mm 0.0 W/m2 CLR
21:21 16.2 °C 10.4 °C 1013.8 hPa ESE 11.1 km/h 11.1 km/h 69 % 0.0 mm 0.0 W/m2 CLR
21:26 16.0 °C 10.3 °C 1013.8 hPa ESE 11.1 km/h 11.1 km/h 69 % 0.0 mm 0.0 W/m2 CLR
21:31 15.9 °C 10.4 °C 1013.8 hPa ESE 9.3 km/h 9.3 km/h 70 % 0.0 mm 0.0 W/m2 CLR
21:36 15.8 °C 10.3 °C 1013.8 hPa SE 9.3 km/h 9.3 km/h 70 % 0.0 mm 0.0 W/m2 CLR
21:41 15.7 °C 10.4 °C 1014.1 hPa ESE 9.7 km/h 9.7 km/h 71 % 0.0 mm 0.0 W/m2 CLR
21:46 15.6 °C 10.4 °C 1014.1 hPa SE 13.0 km/h 13.0 km/h 71 % 0.0 mm 0.0 W/m2 CLR
21:49 15.6 °C 10.3 °C 1014.1 hPa East 4.8 km/h 4.8 km/h 71 % 0.0 mm 0.0 W/m2 CLR
21:51 15.6 °C 10.4 °C 1014.1 hPa ESE 5.6 km/h 5.6 km/h 71 % 0.0 mm 0.0 W/m2 CLR
21:52 15.6 °C 10.4 °C 1014.4 hPa East 5.6 km/h 5.6 km/h 71 % 0.0 mm 0.0 W/m2 CLR
21:57 15.6 °C 10.3 °C 1014.4 hPa Calm     71 % 0.0 mm 0.0 W/m2 CLR
22:02 15.6 °C 10.5 °C 1014.4 hPa Calm     72 % 0.0 mm 0.0 W/m2 CLR
22:07 15.5 °C 10.4 °C 1014.4 hPa Calm     72 % 0.0 mm 0.0 W/m2 CLR
22:12 15.4 °C 10.6 °C 1014.4 hPa Calm     73 % 0.0 mm 0.0 W/m2 CLR
22:17 15.3 °C 10.5 °C 1014.4 hPa Calm     73 % 0.0 mm 0.0 W/m2 CLR
22:18 15.4 °C 10.6 °C 1014.4 hPa Calm     73 % 0.0 mm 0.0 W/m2 CLR
22:23 15.4 °C 10.6 °C 1014.4 hPa Calm     73 % 0.0 mm 0.0 W/m2 CLR
22:28 15.3 °C 10.5 °C 1014.4 hPa Calm     73 % 0.0 mm 0.0 W/m2 CLR
22:33 15.4 °C 10.6 °C 1014.4 hPa Calm     73 % 0.0 mm 0.0 W/m2 CLR
22:38 15.4 °C 10.6 °C 1014.8 hPa Calm     73 % 0.0 mm 0.0 W/m2 CLR
22:43 15.4 °C 10.6 °C 1014.8 hPa Calm     73 % 0.0 mm 0.0 W/m2 CLR
22:48 15.4 °C 10.6 °C 1014.8 hPa Calm     73 % 0.0 mm 0.0 W/m2 CLR
22:53 15.4 °C 10.6 °C 1014.8 hPa Calm     73 % 0.0 mm 0.0 W/m2 CLR
22:58 15.4 °C 10.6 °C 1014.4 hPa SSE 7.4 km/h   73 % 0.0 mm 0.0 W/m2 CLR
23:03 15.4 °C 10.6 °C 1014.4 hPa Calm     73 % 0.0 mm 0.0 W/m2 CLR
23:08 15.4 °C 10.6 °C 1014.8 hPa Calm     73 % 0.0 mm 0.0 W/m2 CLR
23:13 15.3 °C 10.5 °C 1014.4 hPa Calm     73 % 0.0 mm 0.0 W/m2 CLR
23:18 15.2 °C 10.4 °C 1014.4 hPa Calm     73 % 0.0 mm 0.0 W/m2 CLR
23:23 15.2 °C 10.3 °C 1014.4 hPa Calm     73 % 0.0 mm 0.0 W/m2 CLR
23:28 15.1 °C 10.3 °C 1014.8 hPa Calm     73 % 0.0 mm 0.0 W/m2 CLR
23:33 15.1 °C 10.3 °C 1014.8 hPa Calm     73 % 0.0 mm 0.0 W/m2 CLR
23:38 15.0 °C 10.4 °C 1014.8 hPa Calm     74 % 0.0 mm 0.0 W/m2 CLR
23:43 14.9 °C 10.3 °C 1014.8 hPa Calm     74 % 0.0 mm 0.0 W/m2 CLR
23:48 14.8 °C 10.4 °C 1014.8 hPa Calm     75 % 0.0 mm 0.0 W/m2 CLR
23:53 14.7 °C 10.3 °C 1014.8 hPa East 1.9 km/h   75 % 0.0 mm 0.0 W/m2 CLR
23:58 14.6 °C 10.2 °C 1014.8 hPa ESE 3.7 km/h 3.7 km/h 75 % 0.0 mm 0.0 W/m2 CLR
Lo Temps de Massalio
Compliments of Weather Underground - 1.25 mb